XM-1

导读

XM-1是美国XM卫星无线电系统的首颗数字音频广播卫星,昵称为“罗尔”,由原休斯公司(现波音航天公司)702卫星平台建造,于2001年5月8日发射。它属于地球同步轨道卫星,配备大功率转发器,可结合地面中继站,向美国提供上百套卫星广播节目,推动了天基数字广播商业化应用。

基本信息
目录编号:
26761
目录名称:
XM-1
国际标识:
2001-018A
轨道中心:
EARTH
卫星名称:
XM-1
卫星全名:
--
卫星状态:
在轨 (已飞行9166 天)
发射日期:
2001-05-08 UTC
国别 :
美国 (US)
星等 :
--
轨道信息
数据来源 国际轨道数据 AOE轨道数据
星历时间 2026-06-11T22:25:39+0800
1天前
查看轨道信息
2026-06-12T15:00:00+0800
12小时前
查看轨道信息
半长轴 42523.21km 42523.325km
偏心率 0.00098 0.0009745
轨道倾角 8.827° 8.829°
近地点辐角 341.492° 341.623°
升交点赤经 61.794° 61.786°
平近点角 205.320° 91.320°
近地点 36103.4km 36103.749km
远地点 36186.746km 36186.627km
周期 1454.450分钟 1454.456分钟
每日圈数 0.990065 0.990061
详细信息
使用方式:
暂无
2D轨道图
3D轨道图
轨道高度分析图
轨道倾角分析图
轨道综合分析图
查看轨道综合分析图